Hourly Weather Barlewice

Today, 23 September, Wednesday

Time Temperature Precipitation Wind Pressure Humidity
00:00 +17°C° 0 mm 4 mps 752 mmHg 62%
01:00 +17°C° 0 mm 4 mps 752 mmHg 63%
02:00 +17°C° 0 mm 4 mps 752 mmHg 65%
03:00 +15°C° 0 mm 4 mps 752 mmHg 67%
04:00 +16°C° 0 mm 3 mps 751 mmHg 69%
05:00 +15°C° 0 mm 4 mps 751 mmHg 68%
06:00 +17°C° 0 mm 4 mps 751 mmHg 67%
07:00 +17°C° 0 mm 4 mps 751 mmHg 66%
08:00 +19°C° 0 mm 4 mps 751 mmHg 61%
09:00 +21°C° 0 mm 4 mps 751 mmHg 55%
10:00 +23°C° 0 mm 4 mps 751 mmHg 50%
11:00 +25°C° 0 mm 5 mps 751 mmHg 47%
12:00 +26°C° 0 mm 5 mps 751 mmHg 43%
13:00 +28°C° 0 mm 5 mps 751 mmHg 40%
14:00 +27°C° 0 mm 4 mps 750 mmHg 42%
15:00 +27°C° 0 mm 3 mps 750 mmHg 45%
16:00 +26°C° 0 mm 3 mps 749 mmHg 48%
17:00 +25°C° 0 mm 3 mps 749 mmHg 51%
18:00 +22°C° 0 mm 3 mps 750 mmHg 55%
19:00 +20°C° 0 mm 3 mps 750 mmHg 59%
20:00 +20°C° 0 mm 3 mps 749 mmHg 62%
21:00 +19°C° 0 mm 3 mps 749 mmHg 64%
22:00 +18°C° 0 mm 3 mps 749 mmHg 66%
23:00 +18°C° 0 mm 3 mps 749 mmHg 69%

Tomorrow, 24 September, Thursday

Time Temperature Precipitation Wind Pressure Humidity
00:00 +17°C° 0 mm 3 mps 749 mmHg 72%
01:00 +17°C° 0 mm 3 mps 749 mmHg 75%
02:00 +17°C° 0 mm 3 mps 749 mmHg 77%
03:00 +17°C° 0 mm 3 mps 749 mmHg 80%
04:00 +16°C° 0 mm 3 mps 749 mmHg 82%
05:00 +17°C° 0 mm 3 mps 749 mmHg 80%
06:00 +17°C° 0 mm 4 mps 749 mmHg 79%
07:00 +18°C° 0 mm 4 mps 749 mmHg 77%
08:00 +19°C° 0 mm 4 mps 749 mmHg 72%
09:00 +21°C° 0 mm 5 mps 749 mmHg 66%
10:00 +23°C° 0 mm 5 mps 749 mmHg 61%
11:00 +25°C° 0 mm 5 mps 749 mmHg 57%
12:00 +25°C° 0 mm 4 mps 749 mmHg 52%
13:00 +26°C° 0 mm 4 mps 749 mmHg 48%
14:00 +26°C° 0 mm 4 mps 749 mmHg 49%
15:00 +25°C° 0 mm 3 mps 749 mmHg 50%
16:00 +25°C° 0 mm 2 mps 749 mmHg 52%
17:00 +23°C° 0 mm 2 mps 749 mmHg 57%
18:00 +20°C° 0 mm 2 mps 749 mmHg 63%
19:00 +20°C° 0 mm 1 mps 750 mmHg 68%
20:00 +19°C° 0 mm 1 mps 750 mmHg 71%
21:00 +19°C° 0 mm 1 mps 750 mmHg 74%
22:00 +18°C° 0 mm 1 mps 750 mmHg 76%
23:00 +17°C° 0 mm 2 mps 750 mmHg 77%

Day after tomorrow, 25 September, Friday

Time Temperature Precipitation Wind Pressure Humidity
00:00 +17°C° 0 mm 2 mps 749 mmHg 77%
01:00 +17°C° 0 mm 2 mps 749 mmHg 77%
02:00 +16°C° 0 mm 2 mps 749 mmHg 78%
03:00 +16°C° 0 mm 3 mps 749 mmHg 78%
04:00 +16°C° 0 mm 3 mps 748 mmHg 78%
05:00 +16°C° 0 mm 3 mps 748 mmHg 77%
06:00 +16°C° 0 mm 3 mps 747 mmHg 76%
07:00 +17°C° 0 mm 3 mps 747 mmHg 75%
08:00 +18°C° 0 mm 4 mps 746 mmHg 71%
09:00 +20°C° 0 mm 4 mps 746 mmHg 66%
10:00 +22°C° 0 mm 5 mps 745 mmHg 61%
11:00 +23°C° 0 mm 6 mps 745 mmHg 59%
12:00 +24°C° 0 mm 6 mps 744 mmHg 57%
13:00 +24°C° 0 mm 7 mps 743 mmHg 54%
14:00 +24°C° 0.1 mm 6 mps 743 mmHg 56%
15:00 +24°C° 0.1 mm 6 mps 742 mmHg 57%
16:00 +23°C° 0.1 mm 6 mps 742 mmHg 58%
17:00 +22°C° 0.5 mm 5 mps 742 mmHg 66%
18:00 +20°C° 0.5 mm 5 mps 742 mmHg 75%
19:00 +18°C° 0.5 mm 4 mps 742 mmHg 83%
20:00 +18°C° 0 mm 4 mps 742 mmHg 83%
21:00 +18°C° 0 mm 4 mps 742 mmHg 84%
22:00 +17°C° 0 mm 4 mps 742 mmHg 85%
23:00 +17°C° 0.4 mm 4 mps 743 mmHg 87%

26 September, Saturday

Time Temperature Precipitation Wind Pressure Humidity
00:00 +16°C° 0.4 mm 3 mps 743 mmHg 89%
01:00 +16°C° 0.4 mm 3 mps 743 mmHg 90%
02:00 +16°C° 0.1 mm 3 mps 743 mmHg 89%
03:00 +14°C° 0.1 mm 3 mps 743 mmHg 87%
04:00 +14°C° 0.1 mm 3 mps 744 mmHg 86%
05:00 +14°C° 0 mm 3 mps 744 mmHg 85%
06:00 +14°C° 0 mm 3 mps 744 mmHg 84%
07:00 +14°C° 0 mm 3 mps 744 mmHg 83%
08:00 +14°C° 0 mm 4 mps 744 mmHg 82%
09:00 +15°C° 0 mm 4 mps 744 mmHg 81%
10:00 +16°C° 0 mm 5 mps 744 mmHg 80%
11:00 +16°C° 0.1 mm 5 mps 744 mmHg 82%
12:00 +16°C° 0.1 mm 5 mps 744 mmHg 83%
13:00 +16°C° 0.1 mm 6 mps 743 mmHg 85%
14:00 +16°C° 0.3 mm 5 mps 743 mmHg 86%
15:00 +17°C° 0.3 mm 5 mps 743 mmHg 87%
16:00 +17°C° 0.3 mm 5 mps 743 mmHg 88%
17:00 +18°C° 0.7 mm 4 mps 743 mmHg 89%
18:00 +18°C° 0.7 mm 3 mps 743 mmHg 89%
19:00 +18°C° 0.7 mm 3 mps 743 mmHg 90%
20:00 +18°C° 0.9 mm 3 mps 743 mmHg 91%
21:00 +18°C° 0.9 mm 3 mps 743 mmHg 91%
22:00 +18°C° 0.9 mm 3 mps 743 mmHg 92%
23:00 +18°C° 0.5 mm 3 mps 742 mmHg 91%

27 September, Sunday

Time Temperature Precipitation Wind Pressure Humidity
00:00 +18°C° 0.5 mm 3 mps 742 mmHg 89%
01:00 +18°C° 0.5 mm 3 mps 742 mmHg 88%
02:00 +18°C° 0 mm 3 mps 742 mmHg 83%
03:00 +18°C° 0 mm 4 mps 742 mmHg 79%
04:00 +18°C° 0 mm 4 mps 741 mmHg 75%
05:00 +18°C° 0 mm 4 mps 742 mmHg 74%
06:00 +17°C° 0 mm 5 mps 742 mmHg 73%
07:00 +16°C° 0 mm 5 mps 742 mmHg 72%
08:00 +17°C° 0 mm 5 mps 742 mmHg 70%
09:00 +19°C° 0 mm 5 mps 742 mmHg 68%
10:00 +20°C° 0 mm 5 mps 742 mmHg 66%
11:00 +20°C° 0 mm 5 mps 742 mmHg 66%
12:00 +20°C° 0 mm 5 mps 742 mmHg 65%
13:00 +20°C° 0 mm 4 mps 742 mmHg 65%
14:00 +20°C° 0.1 mm 4 mps 743 mmHg 68%
15:00 +19°C° 0.1 mm 4 mps 743 mmHg 72%
16:00 +18°C° 0.1 mm 3 mps 743 mmHg 76%
17:00 +18°C° 0.2 mm 4 mps 743 mmHg 78%
18:00 +17°C° 0.2 mm 4 mps 743 mmHg 80%
19:00 +17°C° 0.2 mm 4 mps 743 mmHg 83%
20:00 +17°C° 0.1 mm 4 mps 743 mmHg 83%
21:00 +17°C° 0.1 mm 3 mps 743 mmHg 83%
22:00 +17°C° 0.1 mm 3 mps 743 mmHg 84%
23:00 +16°C° 0 mm 3 mps 743 mmHg 83%

28 September, Monday

Time Temperature Precipitation Wind Pressure Humidity
00:00 +15°C° 0 mm 4 mps 743 mmHg 83%
01:00 +14°C° 0 mm 4 mps 743 mmHg 83%
02:00 +14°C° 0 mm 4 mps 743 mmHg 84%
03:00 +14°C° 0 mm 4 mps 743 mmHg 85%
04:00 +14°C° 0 mm 4 mps 743 mmHg 86%
05:00 +13°C° 0 mm 4 mps 743 mmHg 83%
06:00 +13°C° 0 mm 4 mps 743 mmHg 81%
07:00 +12°C° 0 mm 3 mps 743 mmHg 78%
08:00 +12°C° 0 mm 4 mps 744 mmHg 76%
09:00 +12°C° 0 mm 5 mps 744 mmHg 73%
10:00 +12°C° 0 mm 5 mps 745 mmHg 70%
11:00 +12°C° 0 mm 5 mps 745 mmHg 68%
12:00 +12°C° 0 mm 5 mps 745 mmHg 67%
13:00 +13°C° 0 mm 5 mps 746 mmHg 65%
14:00 +12°C° 0 mm 5 mps 746 mmHg 65%
15:00 +12°C° 0 mm 4 mps 746 mmHg 65%
16:00 +12°C° 0 mm 4 mps 746 mmHg 65%
17:00 +12°C° 0 mm 4 mps 747 mmHg 66%
18:00 +12°C° 0 mm 4 mps 747 mmHg 67%
19:00 +11°C° 0 mm 3 mps 747 mmHg 68%
20:00 +11°C° 0 mm 4 mps 747 mmHg 70%
21:00 +10°C° 0 mm 4 mps 747 mmHg 72%
22:00 +10°C° 0 mm 4 mps 748 mmHg 75%
23:00 +10°C° 0 mm 3 mps 748 mmHg 76%
Show more